Location: Fornova de Taro
(44.7000°N, 10.1000°E)
Time: 02:55:23
(UTC+00:00)

Cosmos 1674 - Pass Details

Date: 26 May 2022
Orbit: 488 x 509 km, 82.5° (Epoch: 26 June)

Event Time Altitude Azimuth Distance (km) Brightness Sun altitude
Exits shadow 00:10:56 29° 293° (WNW) 953 4.1 -23.1°
Drops below altitude 10° 00:13:59 10° 347° (NNW) 1,720 6.2 -22.9°
Sets 00:16:20 0° 359° (N) 2,614 7.6 -22.8°
